Regional Weather Roundup
Issued by NWS

Home | Current Version | Previous Version | Graphics & Text | Print | Product List | Glossary On
Versions: 1 2 3 4 5 6 7 8 9 10 11 12 13 14 15 16 17 18 19 20 21 22 23 24 25 26 27 28 29 30 31 32 33 34 35 36 37 38 39 40 41 42 43 44 45 46 47 48 49 50
343
ASUS44 KJAN 211510
RWRMS

MISSISSIPPI HOURLY WEATHER ROUNDUP
NATIONAL WEATHER SERVICE JACKSON MS
1000 AM CDT THU AUG 21 2014

NOTE: "FAIR: INDICATES FEW OR NO CLOUDS BELOW 12,000 FEET WITH NO
SIGNIFICANT WEATHER AND/OR OBSTRUCTIONS TO VISIBILITY.

MSZ001>002-007>008-010>013-018>021-025>028-034>036-211600-
NORTHWEST MISSISSIPPI

CITY           SKY/WX    TMP DP  RH WIND       PRES   REMARKS
CLARKSDALE     FAIR      84  77  79 SW3       30.13R HX  94
CLEVELAND      FAIR      84  78  80 CALM      30.12R HX  95
GREENWOOD      MOSUNNY   84  75  74 SW8       30.13S HX  92
GREENVILLE     SUNNY     84  76  76 SW10      30.12R HX  93
GRENADA        FAIR      82  73  74 SW5       30.13S
OLIVE BRANCH   MOSUNNY   82  77  83 SW10      30.13R HX  91
OXFORD         FAIR      82  72  69 NW8       30.15S
TUNICA         MOSUNNY   84  75  74 SW10      30.12R HX  92
$$

MSZ003>006-009-014>017-022>024-029>033-037>039-211600-
NORTHEAST MISSISSIPPI

CITY           SKY/WX    TMP DP  RH WIND       PRES   REMARKS
BELMONT        FAIR      84  75  74 SW6       30.14S HX  91
COLUMBUS AFB   SUNNY     86  72  62 W5        30.14S HX  92
CORINTH        FAIR      84  73  70 W7        30.12S HX  91
GOLDN TRIANGLE SUNNY     88  72  58 W8        30.15S HX  94
STARKVILLE     FAIR      86  72  62 W3        30.14S HX  92
TUPELO         SUNNY     88  72  58 W7        30.13S HX  94
$$

MSZ040-058-211600-
CENTRAL MISSISSIPPI

CITY           SKY/WX    TMP DP  RH WIND       PRES   REMARKS
JACKSON INTL   MOSUNNY   86  75  69 SW5       30.14F HX  95
JACKSON HAWKNS SUNNY     87  75  67 W7        30.15S HX  96
MERIDIAN KEY   SUNNY     87  72  60 VRB3      30.15S HX  93
MERIDIAN NAS   SUNNY     87  73  62 W6        30.15S HX  94
RAYMOND        FAIR      86  81  84 SW6       30.15S HX 102
VICKSBURG      MOSUNNY   87  76  69 VRB5      30.13F HX  97
$$

MSZ059>079-211600-
SOUTH MISSISSIPPI

CITY           SKY/WX    TMP DP  RH WIND       PRES   REMARKS
BROOKHAVEN     FAIR      86  75  70 SW6       30.17S HX  95
HATTIESBURG    SUNNY     87  75  67 CALM      30.16S HX  96
MCCOMB         SUNNY     87  75  67 SW8       30.15S HX  96
NATCHEZ        PTSUNNY   84  75  74 S5        30.15S HX  92
PINE BELT      SUNNY     86  72  62 W5        30.17F HX  92
$$

MSZ080>082-211600-
COASTAL MISSISSIPPI

CITY           SKY/WX    TMP DP  RH WIND       PRES   REMARKS
BAY ST LOUIS   MOSUNNY  N/A N/A N/A CALM      30.15S
BILOXI         SUNNY     89  76  64 NW3       30.15S HX 100
PASCAGOULA     SUNNY     88  75  65 N6        30.15S HX  97
GULFPORT       MOSUNNY   87  74  64 CALM      30.14S HX  95
$$



USA.gov is the U.S. government's official web portal to all federal, state and local government web resources and services.